FW8253 Weather Reports


Display with metric or nautical units.
time (UTC)temp
F
wind
direction
speed
MPH
gust
MPH
rain 1hr
in
rain 24hr
in
rain mn
in
humidity
%
barometer
mb
20260505024911 60 207 0.0 0.0 0.00 0.00 0.00 80 1018.2
20260505024408 61 206 0.0 0.0 0.00 0.00 0.00 81 1018.0
20260505023905 61 223 0.0 0.0 0.00 0.00 0.00 81 1018.1
20260505023402 61 207 0.0 0.0 0.00 0.00 0.00 81 1017.9
20260505022859 61 175 0.0 0.0 0.00 0.00 0.00 82 1017.9
20260505022356 61 175 0.0 0.0 0.00 0.00 0.00 81 1017.9
20260505021854 61 175 0.0 0.0 0.00 0.00 0.00 81 1018.1
20260505021350 61 175 0.0 0.0 0.00 0.00 0.00 82 1017.8
20260505020846 61 175 0.0 0.0 0.00 0.00 0.00 81 1017.9
20260505020341 61 175 0.0 0.0 0.00 0.00 0.00 82 1017.8
20260505015839 61 175 0.0 0.0 0.00 0.00 0.00 81 1017.6
20260505015336 61 175 0.0 0.0 0.00 0.00 0.00 81 1017.6
20260505014833 61 175 0.0 0.0 0.00 0.00 0.00 81 1017.6
20260505014330 61 175 0.0 0.0 0.00 0.00 0.00 81 1017.4
20260505013826 62 177 0.0 0.0 0.00 0.00 0.00 81 1017.4
20260505013324 61 182 0.0 0.0 0.00 0.00 0.00 81 1017.5
20260505012822 61 182 0.0 0.0 0.00 0.00 0.00 82 1017.1
20260505012319 61 183 0.0 0.0 0.00 0.00 0.00 83 1017.2
20260505011815 61 182 0.0 0.0 0.00 0.00 0.00 83 1017.1
20260505011312 61 182 0.0 0.0 0.00 0.00 0.00 85 1017.1
20260505010808 62 182 0.0 0.0 0.00 0.00 0.00 87 1016.9
20260505010304 62 182 0.0 0.0 0.00 0.00 0.00 87 1016.8
20260505005801 62 182 0.0 0.0 0.00 0.00 0.00 87 1016.9
20260505005258 63 183 0.0 0.0 0.00 0.00 0.00 86 1016.6
20260505004755 63 183 0.0 0.0 0.00 0.00 0.00 85 1016.6
20260505004251 63 183 0.0 0.0 0.00 0.00 0.00 84 1016.4
20260505003748 64 183 0.0 0.0 0.00 0.00 0.00 84 1016.4
20260505003246 64 183 0.0 0.0 0.00 0.00 0.00 82 1016.4
20260505002742 65 183 0.0 0.0 0.00 0.00 0.00 81 1016.2
20260505002240 65 183 0.0 0.0 0.00 0.00 0.00 80 1016.4
20260505001737 66 183 0.0 0.0 0.00 0.00 0.00 77 1016.3
20260505001235 66 183 0.0 0.0 0.00 0.00 0.00 76 1016.3
20260505000731 67 183 0.0 0.0 0.00 0.00 0.00 74 1016.3
20260505000229 67 183 0.0 0.0 0.00 0.00 0.00 72 1016.3
20260504235725 68 183 0.0 0.0 0.00 0.00 0.00 71 1016.4
20260504235221 68 183 0.0 0.0 0.00 0.00 0.00 71 1016.3
20260504234719 69 183 0.0 0.0 0.00 0.00 0.00 70 1016.2
20260504234216 70 183 0.0 0.0 0.00 0.00 0.00 68 1016.2
20260504233712 70 183 0.0 0.0 0.00 0.00 0.00 66 1016.0
20260504233208 71 183 0.0 0.0 0.00 0.00 0.00 65 1015.9
20260504232706 71 183 0.0 0.0 0.00 0.00 0.00 63 1016.1
20260504232203 72 183 0.0 0.0 0.00 0.00 0.00 62 1016.1
20260504231659 73 183 0.0 0.0 0.00 0.00 0.00 63 1016.0
20260504231155 73 183 0.0 0.0 0.00 0.00 0.00 62 1016.1
20260504230652 74 183 0.0 0.0 0.00 0.00 0.00 61 1016.1
20260504230151 74 183 0.0 0.0 0.00 0.00 0.00 56 1015.9
20260504225649 75 183 0.0 0.0 0.00 0.00 0.00 55 1016.2
20260504225144 75 183 0.0 0.0 0.00 0.00 0.00 53 1016.2
20260504224642 75 184 0.0 0.0 0.00 0.00 0.00 50 1016.2
20260504224138 75 184 0.0 0.0 0.00 0.00 0.00 52 1016.2
20260504223636 76 184 0.0 0.0 0.00 0.00 0.00 47 1016.2
20260504223131 76 184 0.0 0.0 0.00 0.00 0.00 52 1016.2
20260504222628 76 184 0.0 0.0 0.00 0.00 0.00 53 1016.1
20260504222125 76 184 0.0 0.0 0.00 0.00 0.00 50 1016.4
20260504221623 76 184 0.0 0.0 0.00 0.00 0.00 49 1016.2
20260504221119 76 184 0.0 0.0 0.00 0.00 0.00 48 1016.5
20260504220616 77 184 0.0 0.0 0.00 0.00 0.00 44 1016.2
20260504220114 76 184 0.0 0.0 0.00 0.00 0.00 51 1016.4
20260504215609 77 184 0.0 0.0 0.00 0.00 0.00 48 1016.3
20260504215107 77 183 0.0 0.0 0.00 0.00 0.00 45 1016.2
20260504214603 78 210 0.0 0.0 0.00 0.00 0.00 45 1016.2
20260504214059 80 228 0.0 0.0 0.00 0.00 0.00 43 1016.2
20260504213556 80 245 0.0 0.0 0.00 0.00 0.00 44 1016.1
20260504213053 80 232 0.0 0.0 0.00 0.00 0.00 43 1016.2
20260504212549 81 247 0.0 0.0 0.00 0.00 0.00 42 1016.0
20260504212046 81 248 0.0 0.0 0.00 0.00 0.00 44 1016.0
20260504211543 80 248 0.0 0.0 0.00 0.00 0.00 37 1016.1
20260504211040 81 249 0.0 0.0 0.00 0.00 0.00 35 1016.3
20260504210537 80 247 0.0 0.0 0.00 0.00 0.00 41 1016.3
20260504210034 81 247 0.0 0.0 0.00 0.00 0.00 38 1016.2
20260504205532 81 231 0.0 0.0 0.00 0.00 0.00 37 1016.4
20260504205029 82 203 0.0 0.0 0.00 0.00 0.00 41 1016.5
20260504204527 81 249 0.0 0.0 0.00 0.00 0.00 36 1016.4
20260504204026 82 228 0.0 0.0 0.00 0.00 0.00 40 1016.5
20260504203523 82 273 0.0 0.0 0.00 0.00 0.00 33 1016.6
20260504203021 81 243 0.0 0.0 0.00 0.00 0.00 41 1016.6
20260504202516 82 245 0.0 0.0 0.00 0.00 0.00 37 1016.6
20260504202013 82 216 0.0 0.0 0.00 0.00 0.00 42 1016.7
20260504201510 82 203 0.0 0.0 0.00 0.00 0.00 37 1016.6
20260504201008 81 234 0.0 0.0 0.00 0.00 0.00 39 1016.4
20260504200504 81 250 0.0 0.0 0.00 0.00 0.00 40 1016.8
20260504200001 82 232 0.0 0.0 0.00 0.00 0.00 36 1016.7
20260504195457 82 244 0.0 0.0 0.00 0.00 0.00 37 1016.9
20260504194954 82 236 0.0 0.0 0.00 0.00 0.00 39 1017.2
20260504194450 82 246 0.0 0.0 0.00 0.00 0.00 39 1017.0
20260504193945 82 173 0.0 0.0 0.00 0.00 0.00 37 1017.0
20260504193443 82 231 0.0 0.0 0.00 0.00 0.00 40 1016.9
20260504192942 83 223 0.0 0.0 0.00 0.00 0.00 37 1017.1
20260504192438 83 229 0.0 0.0 0.00 0.00 0.00 40 1017.2
20260504191937 82 43 0.0 0.0 0.00 0.00 0.00 36 1017.4
20260504191435 82 280 0.0 0.0 0.00 0.00 0.00 38 1017.3
20260504190930 82 72 0.0 0.0 0.00 0.00 0.00 34 1017.4
20260504190426 81 193 0.0 0.0 0.00 0.00 0.00 40 1017.5
20260504185923 81 190 0.0 0.0 0.00 0.00 0.00 34 1017.6
20260504185420 82 250 0.0 0.0 0.00 0.00 0.00 38 1017.6
20260504184916 82 247 0.0 0.0 0.00 0.00 0.00 37 1017.8
20260504184412 82 79 0.0 0.0 0.00 0.00 0.00 36 1017.7
20260504183908 80 74 0.0 0.0 0.00 0.00 0.00 39 1017.8
20260504183405 80 74 0.0 0.0 0.00 0.00 0.00 38 1017.8
20260504182903 80 73 0.0 0.0 0.00 0.00 0.00 36 1018.0
20260504182400 80 74 0.0 0.0 0.00 0.00 0.00 35 1017.9
20260504181856 80 112 0.0 0.0 0.00 0.00 0.00 35 1017.9
20260504181354 80 138 0.0 0.0 0.00 0.00 0.00 35 1017.8
20260504180853 80 116 0.0 0.0 0.00 0.00 0.00 34 1018.2
20260504180351 81 124 0.0 0.0 0.00 0.00 0.00 34 1018.2
20260504175849 80 124 0.0 0.0 0.00 0.00 0.00 39 1018.3
20260504175345 80 116 0.0 0.0 0.00 0.00 0.00 35 1018.2
20260504174843 80 114 0.0 0.0 0.00 0.00 0.00 33 1018.4
20260504174341 81 71 0.0 0.0 0.00 0.00 0.00 36 1018.4
20260504173837 80 71 0.0 0.0 0.00 0.00 0.00 36 1018.6
20260504173334 79 304 0.0 0.0 0.00 0.00 0.00 36 1018.5
20260504172831 79 344 0.0 0.0 0.00 0.00 0.00 39 1018.6
20260504172328 78 351 0.0 0.0 0.00 0.00 0.00 39 1018.5
20260504171824 79 47 0.0 0.0 0.00 0.00 0.00 39 1018.8
20260504171321 79 52 0.0 0.0 0.00 0.00 0.00 36 1018.8
20260504170818 79 56 0.0 0.0 0.00 0.00 0.00 41 1018.8
20260504170315 78 59 0.0 0.0 0.00 0.00 0.00 40 1018.8
20260504160233 76 349 0.0 0.0 0.00 0.00 0.00 43 1019.4
20260504150659 73 287 0.0 0.0 0.00 0.00 0.00 53 1020.1
20260504150155 73 207 0.0 0.0 0.00 0.00 0.00 56 1020.0
20260504141124 68 227 0.0 0.0 0.00 0.00 0.00 66 1020.2
20260504140621 66 238 0.0 0.0 0.00 0.00 0.00 64 1020.4
20260504140117 66 233 0.0 0.0 0.00 0.00 0.00 66 1020.4
20260504130545 54 177 0.0 0.0 0.00 0.00 0.00 99 1020.5
20260504110433 44 177 0.0 0.0 0.00 0.00 0.00 99 1020.0
20260504100349 45 177 0.0 0.0 0.00 0.00 0.00 99 1019.8
20260504081743 47 177 0.0 0.0 0.00 0.00 0.00 99 1019.1
20260504081239 47 177 0.0 0.0 0.00 0.00 0.00 99 1019.2
20260504080735 47 177 0.0 0.0 0.00 0.00 0.00 99 1019.3
20260504080232 47 177 0.0 0.0 0.00 0.00 0.00 99 1019.4
20260504070200 47 177 0.0 0.0 0.00 0.00 0.00 99 1019.5
20260504060120 48 207 0.0 0.0 0.00 0.00 0.00 99 1020.2
20260504050548 47 207 0.0 0.0 0.00 0.00 0.00 98 1020.1
20260504045542 47 207 0.0 0.0 0.00 0.00 0.00 98 1020.0
20260504045037 47 207 0.0 0.0 0.00 0.00 0.00 98 1019.9
20260504044535 47 207 0.0 0.0 0.00 0.00 0.00 98 1020.0
20260504044032 47 207 0.0 0.0 0.00 0.00 0.00 98 1019.9
20260504043529 47 207 0.0 0.0 0.00 0.00 0.00 98 1019.8
20260504043026 47 207 0.0 0.0 0.00 0.00 0.00 98 1019.7
20260504042523 47 207 0.0 0.0 0.00 0.00 0.00 98 1019.7
20260504042020 48 207 0.0 0.0 0.00 0.00 0.00 98 1019.6
20260504041516 48 207 0.0 0.0 0.00 0.00 0.00 97 1019.6
20260504041012 48 207 0.0 0.0 0.00 0.00 0.00 97 1019.6
20260504040510 48 207 0.0 0.0 0.00 0.00 0.00 97 1019.7
20260504040006 48 207 0.0 0.0 0.00 0.00 0.00 97 1019.7
20260504035503 48 207 0.0 0.0 0.00 0.00 0.00 97 1019.6
20260504034959 48 207 0.0 0.0 0.00 0.00 0.00 97 1019.7
20260504034457 48 207 0.0 0.0 0.00 0.00 0.00 96 1019.4
20260504033954 49 207 0.0 0.0 0.00 0.00 0.00 96 1019.5
20260504033452 49 207 0.0 0.0 0.00 0.00 0.00 96 1019.8
20260504032949 49 207 0.0 0.0 0.00 0.00 0.00 95 1019.5
20260504032446 49 207 0.0 0.0 0.00 0.00 0.00 96 1019.6
20260504031942 49 207 0.0 0.0 0.00 0.00 0.00 95 1019.7
20260504031439 49 207 0.0 0.0 0.00 0.00 0.00 95 1019.6
20260504030936 50 207 0.0 0.0 0.00 0.00 0.00 95 1019.5
20260504030433 50 207 0.0 0.0 0.00 0.00 0.00 94 1019.9
20260504025929 50 207 0.0 0.0 0.00 0.00 0.00 94 1019.7
20260504025426 50 207 0.0 0.0 0.00 0.00 0.00 94 1019.7